sat.trackr.live / text

‹ back to catalog

YAOGAN-25 01A

NORAD 40338 · 2014-080A

PAYLOAD ACTIVE UNKNOWN

§ Identity

Operator
Country
PRC
Launch date
2014-12-10
Launch site
JSC
Launch vehicle
Mass (kg)
RCS (m²)
2.33

External: N2YO · Heavens-Above · Gunter

§ Orbital elements

Epoch: 2026-09-20T04:42:23.126400Z

Period
107.03 min
Inclination
63.3860°
Eccentricity
0.0374988
Mean motion
13.45419182 rev/d
Perigee alt
809.1 km
Apogee alt
1,369.2 km
Semi-major
7,467.3 km
B*
9.1086e-5
RAAN
65.9666°
Arg perigee
9.6527°
Mean anomaly
351.1449°
Rev number
57,844

§ Raw data

YAOGAN-25 01A1 40338U 14080A   26263.19610100 -.00000008  00000+0  91086-4 0  99942 40338  63.3860  65.9666 0374988   9.6527 351.1449 13.45419182578445

JSON: /api/v1/satellites/40338 · /tle

For live sub-satellite position, see the globe view (requires WebGL).

§ Visibility from observer

Set your observer location to see the next 7 days of passes ≥ 10°. The values pass through the URL so the page stays shareable.

No JS? Fill the form by hand. The geolocation button needs JavaScript.